Weather History for KPIE - September, 2014

Change the Weather History Date:

Sunday, September 28, 2014

  Actual Average Record
Temperature  
Mean Temperature 80 °F -  
Max Temperature 89 °F 87 °F 94 °F (1976)
Min Temperature 73 °F 74 °F 66 °F (2006)
Cooling Degree Days 16    
Growing Degree Days 30 (Base 50)    
Moisture  
Dew Point 74 °F    
Average Humidity 87    
Maximum Humidity 100    
Minimum Humidity 59    
Precipitation  
Precipitation 0.01 in - - ()
Sea Level Pressure  
Sea Level Pressure 29.97 in    
Wind  
Wind Speed 8 mph (ESE)    
Max Wind Speed 25 mph    
Max Gust Speed 30 mph    
Visibility 8 miles    
Events Fog , Rain , Thunderstorm    
Averages and records for this station are not official NWS values.
T = Trace of Precipitation, MM = Missing Value Source: NWS Daily Summary

Daily Weather History Graph

Daily Weather History Graph

Search for Another Location

Airport or City:

Trip Planner

Search our weather history database for the weather conditions in past years. The results will help you decide how hot, cold, wet, or windy it might be!

Date:

Astronomy

Sep. 28, 2014 Rise Set
Actual Time 7:22 AM EDT 7:20 PM EDT
Civil Twilight 6:58 AM EDT 7:43 PM EDT
Nautical Twilight 6:31 AM EDT 8:10 PM EDT
Astronomical Twilight 6:04 AM EDT 8:38 PM EDT
Moon 11:14 AM EDT (9/28) 10:24 PM EDT (9/28)
Length of Visible Light 12h 44m
Length of Day
11h 58m
Waxing Crescent, 19% of the Moon is Illuminated
Sep 28
Waxing Crescent
Oct 1
First Quarter
Oct 8
Full
Oct 15
Last Quarter
Oct 23
New

Hourly Weather History & Observations

Time (EDT) Temp. Heat Index Dew Point Humidity Pressure Visibility Wind Dir Wind Speed Gust Speed Precip Events Conditions
12:53 AM 75.9 °F - 73.9 °F 94% 30.01 in 10.0 mi ENE 5.8 mph - 0.01 in   Partly Cloudy
1:53 AM 75.9 °F - 73.9 °F 94% 29.99 in 10.0 mi ENE 6.9 mph - N/A   Clear
2:53 AM 75.9 °F - 73.0 °F 91% 29.98 in 10.0 mi ENE 6.9 mph - N/A   Clear
3:53 AM 77.0 °F - 73.9 °F 90% 29.97 in 10.0 mi ENE 9.2 mph - N/A   Scattered Clouds
4:02 AM 77.0 °F - 73.9 °F 90% 29.97 in 10.0 mi ENE 10.4 mph - N/A   Scattered Clouds
4:22 AM 77.0 °F - 73.9 °F 90% 29.97 in 10.0 mi ENE 5.8 mph - N/A   Mostly Cloudy
4:53 AM 77.0 °F - 75.0 °F 94% 29.97 in 10.0 mi ENE 10.4 mph - N/A   Overcast
5:28 AM 77.0 °F - 75.0 °F 94% 29.97 in 10.0 mi ENE 9.2 mph - N/A   Overcast
5:53 AM 77.0 °F - 75.0 °F 94% 29.98 in 10.0 mi ENE 8.1 mph - N/A   Overcast
6:02 AM 77.0 °F - 75.0 °F 94% 29.98 in 10.0 mi ENE 8.1 mph - N/A   Overcast
6:53 AM 77.0 °F - 75.0 °F 94% 29.99 in 10.0 mi East 6.9 mph - N/A   Overcast
7:53 AM 77.0 °F - 75.0 °F 94% 29.99 in 7.0 mi NE 8.1 mph - N/A   Overcast
8:53 AM 78.1 °F - 75.9 °F 93% 30.01 in 8.0 mi ENE 9.2 mph - N/A   Overcast
9:35 AM 79.0 °F - 75.9 °F 90% 30.01 in 10.0 mi East 8.1 mph - N/A   Partly Cloudy
9:53 AM 80.1 °F 85.4 °F 75.9 °F 87% 30.01 in 10.0 mi East 6.9 mph - N/A   Partly Cloudy
10:53 AM 82.0 °F 89.4 °F 75.9 °F 82% 30.01 in 10.0 mi East 9.2 mph - N/A   Clear
11:53 AM 84.9 °F 95.3 °F 77.0 °F 77% 30.00 in 10.0 mi East 12.7 mph - N/A   Partly Cloudy
12:53 PM 84.9 °F 95.3 °F 77.0 °F 77% 29.99 in 10.0 mi ESE 9.2 mph - N/A   Scattered Clouds
1:11 PM 86.0 °F 95.1 °F 75.0 °F 70% 29.99 in 10.0 mi SE 11.5 mph - N/A   Mostly Cloudy
1:45 PM 86.0 °F 93.8 °F 73.9 °F 67% 29.97 in 10.0 mi ESE 9.2 mph - N/A   Mostly Cloudy
1:53 PM 86.0 °F 93.8 °F 73.9 °F 67% 29.96 in 10.0 mi ESE 9.2 mph - N/A   Mostly Cloudy
2:53 PM 88.0 °F 96.5 °F 73.9 °F 63% 29.94 in 10.0 mi SSE 9.2 mph - N/A   Partly Cloudy
3:53 PM 88.0 °F 95.6 °F 73.0 °F 61% 29.91 in 10.0 mi SSE 4.6 mph - N/A   Scattered Clouds
4:53 PM 88.0 °F 94.7 °F 72.0 °F 59% 29.91 in 10.0 mi Variable 3.5 mph - N/A   Partly Cloudy
5:05 PM 88.0 °F 94.7 °F 72.0 °F 59% 29.90 in 10.0 mi South 5.8 mph - N/A Thunderstorm Scattered Clouds
5:42 PM 84.0 °F 92.6 °F 75.9 °F 76% 29.90 in 10.0 mi WNW 11.5 mph - N/A   Mostly Cloudy
5:53 PM 84.0 °F 92.6 °F 75.9 °F 76% 29.91 in 10.0 mi WNW 11.5 mph - N/A   Mostly Cloudy
6:14 PM 82.9 °F 89.4 °F 73.9 °F 74% 29.93 in 10.0 mi NNE 5.8 mph - N/A Thunderstorm Overcast
6:27 PM 77.0 °F - 73.9 °F 90% 29.94 in 7.0 mi ESE 18.4 mph 25.3 mph 0.00 in Rain , Thunderstorm Heavy Thunderstorms and Rain
6:34 PM 75.9 °F - 73.9 °F 94% 29.96 in 2.5 mi ESE 23.0 mph - 0.00 in Rain , Thunderstorm Heavy Thunderstorms and Rain
6:37 PM 75.9 °F - 73.9 °F 94% 29.96 in 0.8 mi SE 25.3 mph 29.9 mph 0.00 in Rain , Thunderstorm Heavy Thunderstorms and Rain
6:53 PM 75.0 °F - 73.9 °F 96% 29.98 in 0.2 mi ESE 12.7 mph - N/A Fog , Rain , Thunderstorm Heavy Thunderstorms and Rain
7:16 PM 73.9 °F - 73.9 °F 100% 29.98 in 0.5 mi SE 5.8 mph - N/A Fog , Rain , Thunderstorm Heavy Thunderstorms and Rain
7:24 PM 75.0 °F - 73.9 °F 96% 29.98 in 1.0 mi South 6.9 mph - N/A Rain , Thunderstorm Light Thunderstorms and Rain
7:30 PM 75.0 °F - 73.9 °F 96% 29.98 in 4.0 mi South 10.4 mph - N/A Rain , Thunderstorm Heavy Thunderstorms and Rain
7:34 PM 75.0 °F - 73.9 °F 96% 29.98 in 2.5 mi SSE 9.2 mph - N/A Rain , Thunderstorm Heavy Thunderstorms and Rain
7:41 PM 73.9 °F - 73.0 °F 97% 29.98 in 4.0 mi SSE 10.4 mph - N/A Rain , Thunderstorm Thunderstorms and Rain
7:49 PM 73.4 °F - 73.4 °F 100% 29.98 in 5.0 mi SE 8.1 mph - N/A Rain , Thunderstorm Rain
7:53 PM 73.9 °F - 73.0 °F 97% 29.98 in 5.0 mi SSE 5.8 mph - N/A Rain , Thunderstorm Thunderstorms and Rain
8:13 PM 75.0 °F - 73.9 °F 96% 29.98 in 5.0 mi SE 5.8 mph - N/A Rain , Thunderstorm Rain
8:53 PM 75.0 °F - 73.0 °F 94% 29.97 in 7.0 mi ESE 6.9 mph - N/A Rain Rain
9:53 PM 75.9 °F - 73.0 °F 91% 29.97 in 10.0 mi East 9.2 mph - N/A   Clear
10:53 PM 75.9 °F - 73.9 °F 94% 29.97 in 10.0 mi East 5.8 mph - N/A   Clear
11:53 PM 75.9 °F - 73.9 °F 94% 29.98 in 10.0 mi East 5.8 mph - N/A   Clear